User: anonymous   Login
Location: Gleizolles
(44.4833°N, 6.7667°E)
Time: 01:38:03
(UTC+00:00)
Language:

S-56A Canister/Altair - Orbit

View from above orbital plane
View from above orbital plane
View from above satellite
View from above satellite

Ground track
Ground track

The orbit data is extracted from the following two-line orbital elements,

1 00082U 61004B   24164.21246410  .00000562  00000-0  49199-3 0  9996
2 00082  38.8598 207.9018 1166123 270.2426  76.4981 12.26783841986508
Epoch (UTC): 12 June 2024 05:05:56
Eccentricity: 0.1166123
inclination: 38.8598°
perigee height: 637 km
apogee height: 2489 km
right ascension of ascending node: 207.9018°
argument of perigee: 270.2426°
revolutions per day: 12.26783841
mean anomaly at epoch: 76.4981°
orbit number at epoch: 98650

The dashed part of the orbit path shows where the satellite is in the earth's shadow,  

DLR